Погода в Изъяю

Россия / Республика Коми     65°06′27″N   56°59′35″E
темп.,
°C
ветер,
м/с
пор.,
м/с
влажн.,
%
обл.,
%
осадки,
мм/ч
давл.,
гПа
погр.,
м
18 апреля, вс
вс1800:00−5с5108998 0.3 1025674
03:00−9с4108829 0.3 1030398
06:00−10с48701 0.0 1032343
09:00−7с46570 0.0 1035607
12:00−4с46511 0.0 10361053
15:00−3с4654100 0.0 10371433
18:00−5с3674100 0.0 1037723
21:00−8ссз269028 0.1 1038218
19 апреля, пн
пн1900:00−10ссз149527 0.0 1038115
03:00−11з119861 0.0 103916
06:00−6зюз238248 0.0 1038274
09:00−2зюз346487 0.0 10361021
12:00+1зюз465358 0.0 10341232
15:00+2з475299 0.0 10321216
18:00+2з4106083 0.0 1030440
21:000з4136997 0.0 1029585
20 апреля, вт
вт2000:00+1з41275100 0.0 1028531
03:00−1зсз41283100 0.0 1028425
06:00+1зсз411805 0.0 1027474
09:00+4зсз467264 0.0 1027784
12:00+5зсз3672100 0.0 10281100
15:00+3сз258399 0.0 1029294
18:00+1сз1385100 0.0 103062
21:00−1сз11946 0.0 103010
21 апреля, ср
ср2100:00−2юз21959 0.0 103131
03:00−2ююз139531 0.0 103247
06:00+2юз13795 0.0 1032140
09:00+6ююз12645 0.0 1031619
12:00+8ююз236024 0.0 10301037
15:00+8ю346221 0.0 10301100
18:00+5ююв39806 0.0 1029275
21:00+2ююв3108963 0.0 1029240
22 апреля, чт
чт2200:00+1ююв4128852 0.0 1027252
03:00+2ююв41384100 0.0 1026304
06:00+5ююв51576100 0.0 1024553
09:00+8ю6146186 0.0 1022861
12:00+11ю71451100 0.0 10211381
15:00+11ю7144999 0.0 10201709
18:00+9ююз6126699 0.0 10211200
21:00+7ююз61276100 0.1 10221413